Weather in Koslan

Russia / Komi Republic     63°27′31″N   48°53′48″E
temp.,
°C
wind,
m/s
gust,
m/s
humid.,
%
clouds,
%
prec.,
mm/h
press.,
hPa
HPBL,
m
20 june, sun
sun2000:00+9nw27713 0.0 1018229
03:00+8nw37794 0.0 1020302
06:00+11nnw236277 0.0 1022765
09:00+15nw234242 0.0 10221167
12:00+19nw223093 0.0 10211691
15:00+16wsw3344100 0.1 1021687
18:00+13se2356100 0.0 102069
21:00+12se256375 0.0 1020103
21 june, mon
mon2100:00+11sse3116391 0.0 1018307
03:00+11se31077100 0.4 1017286
06:00+13se358866 1.3 1016295
09:00+19s3567100 1.7 1015518
12:00+27wnw384236 0.0 10131646
15:00+28nw5103952 0.0 10132844
18:00+26nnw474452 0.0 10141367
21:00+19n1273100 0.0 101616
22 june, tue
tue2200:00+15ne22890 0.0 101725
03:00+14e11945 0.0 101832
06:00+19ese11710 0.0 1018283
09:00+25sse125125 0.0 1017759
12:00+30wsw36395 0.1 10161853
15:00+28wsw264141 0.1 1014205
18:00+21nnw41379100 1.6 1015402
21:00+20sw2792100 3.1 1017218
23 june, wed
wed2300:00+18nw249799 0.4 101797
03:00+18wnw1295100 1.4 101748
06:00+21n128487 0.0 1018283
09:00+26ene1161100 0.0 1018780
12:00+30nnw014557 0.0 10171586
15:00+32s023773 0.0 10162423
18:00+30s014316 0.0 1015996
21:00+20se378816 0.9 1016190
24 june, thu
thu2400:00+17s249398 0.3 101693
03:00+18se249799 1.4 1015103
06:00+21s38875 0.6 1015364
09:00+27sw465660 0.6 1013918
12:00+31wsw594132 0.0 10122653
15:00+31w593870 0.0 10112730
18:00+23nw387415 0.6 1012567
21:00+21nw39650 0.6 1013307